Weather in Portland

United States     43˚39′26″N   70˚16′09″W
temp.,
°C
wind,
m/s
gust,
m/s
humid.,
%
clouds,
%
prec.,
mm/h
press.,
hPa
HPBL,
m
1 december, tue
tue101:00+15˚s102192100 15.1 10021164
04:00+14˚s81795100 1.3 1001874
07:00+14˚sse61497100 1.8 1002568
10:00+14˚sse61293100 0.3 1001778
13:00+13˚s41089100 0.4 999660
16:00+12˚s61273100 0.0 10001004
19:00+9˚ssw61259100 0.0 10031331
22:00+7˚ssw6116135 0.0 10061429
2 december, wed
wed201:00+6˚ssw5126241 0.1 10071416
04:00+5˚sw5115827 0.0 10081322
07:00+4˚ssw5116221 0.0 10091173
10:00+5˚ssw510540 0.0 10101108
13:00+6˚ssw58510 0.0 10101449
16:00+4˚sw477196 0.0 1010898
19:00+4˚sw587098 0.0 10121045
22:00+2˚wsw5106333 0.0 1012787
3 december, thu
thu301:00+1˚wsw5116417 0.0 1013543
04:00w310630 0.0 1014477
07:00w38610 0.0 1017375
10:00+4˚wsw36460 0.0 1018461
13:00+7˚wsw25290 0.0 1017821
16:00+6˚sw29430 0.0 1018499
19:00+5˚sw412610 0.0 1019545
22:00+4˚wsw5135967 0.0 1018601
4 december, fri
fri401:00+4˚sw5136266 0.0 1018618
04:00+3˚sw3960100 0.0 1017446
07:00+4˚sw41150100 0.0 1017466
10:00+6˚sw41043100 0.0 1016634
13:00+7˚sw41044100 0.0 1015904
16:00+7˚sw496882 0.0 1014588
19:00+5˚wsw4107456 0.0 1015474
22:00+4˚wsw397670 0.0 1015405
5 december, sat
sat501:00+4˚sw258285 0.0 1014251
04:00+4˚sw2584100 0.0 1014308
07:00+3˚w268994 0.0 1015275
10:00+6˚nnw257037 0.0 1016546
13:00+7˚n355319 0.0 1015983
16:00+6˚n24600 0.0 1016296
19:00+3˚n38660 0.0 1017287
22:00+2˚ne367426 0.0 1016295